Location: Saint Louis
(38.6272°N, 90.1978°W)
Time: 01:43:01
(UTC-05:00)

ISS - Pass Details

Date: 23 May 2013
Orbit: 400 x 403 km, 51.6° (Epoch: 23 August)

Event Time Altitude Azimuth Distance (km) Brightness Sun altitude
Exits shadow 02:25:33 16° 57° (ENE) 1,130 -0.5 -27.3°
Drops below altitude 10° 02:26:21 10° 55° (NE) 1,453 0.2 -27.2°
Sets 02:28:26 0° 53° (NE) 2,312 1.4 -27.0°
